Location: Bauersach School (historical)
(38.0926°N, 89.4806°W)
Time: 02:29:10
(UTC+00:00)

Cosmos 1354 Rocket - Pass Details

Date: 11 December 2025
Orbit: 761 x 778 km, 74.0° (Epoch: 15 January)

Event Time Altitude Azimuth Distance (km) Brightness Sun altitude
Rises 23:08:24 0° 195° (SSW) 3,233 7.9 -6.1°
Reaches altitude 10° 23:10:47 10° 194° (SSW) 2,308 7.1 -6.5°
Maximum altitude 23:16:01 84° 107° (ESE) 778 4.0 -7.5°
Drops below altitude 10° 23:21:17 10° 20° (NNE) 2,312 6.1 -8.4°
Sets 23:23:39 0° 20° (NNE) 3,239 6.8 -8.9°
